Umberto Rispoli

Umberto Rispoli

Statistiques 2022

  • Courses courues : 103
  • Nb de victoires : 15
  • Nb de places : 50
  • Écart gagnant : 24
  • Réussite à la gagne : 15%
  • Réussite à la place : 49%
Musique : 6p 2p 4p 4p 4p 2p 6p 8p 3p 8p 7p 3p 0p 7p 4p 6p 12p 8p

Umberto Rispoli en quelques mots

Fils de jockey et issu d’une famille proche du cheval, Umberto Rispoli est un jockey italien d’origine napolitaine. Il effectua notamment son apprentissage chez Luigi Camici (Prix de l’Arc de Triomphe 1988 avec Tony Bin) avant de passer cinq années au service de Giuseppe Botti.

Umberto Rispoli compte plus de mille victoires en Italie et deux Cravaches d’Or transalpines. Aussi, le professionnel aime à s’exporter et compte plusieurs victoires de prestige au Japon et à Hong Kong. En France depuis le printemps 2012, Umberto Rispoli s’y est déjà illustré au plus haut niveau en faisant sien le Prix du Cadran avec Molly Malone en 2012.

DateRangCatégorieAlloc.Dist.HippodromeChevalPoidsSpé.
05/06/22 6 Galop 36 448€ Santa Anita Mitad Del Mundo 53 Plat
05/06/22 2 Galop 37 383€ Santa Anita Crash Corrigan 56,5 Plat
28/05/22 4 Galop 94 339€ Santa Anita Loud Mouth 56,5 Plat
28/05/22 4 Galop 141 509€ Santa Anita Everlys Girl 54 Plat
29/04/22 4 Galop 99 099€ Keeneland Durante 53 Plat
28/04/22 2 Galop 99 099€ Keeneland Bravo Kitten 53 Plat
24/04/22 6 Galop 108 108€ Keeneland Jezebel's Kitten 53 Plat
24/04/22 8 Galop 108 108€ Keeneland Peter's Kitten 53 Plat
23/04/22 3 Galop 315 315€ Keeneland Bemma's Boy 53 Plat
23/04/22 8 Galop 117 117€ Keeneland Niceno 53 Plat
23/04/22 7 Galop 40 540€ Keeneland Bayou Wind 56,5 Plat
22/04/22 3 Galop 90 090€ Keeneland Devilly 53 Plat
22/04/22 0 Galop 99 099€ Keeneland Mun Luv 53 Plat
22/04/22 7 Galop 90 090€ Keeneland Paris Kentucky 54 Plat
21/04/22 4 Galop 99 099€ Keeneland Rockstar Ro 53 Plat
16/04/22 6 Galop 450 450€ Keeneland Waliyak 55,5 Plat
16/04/22 12 Galop 180 180€ Keeneland Headline Hunter 55 Plat
16/04/22 8 Galop 108 108€ Keeneland Basquiat 53 Plat
16/04/22 7 Galop 99 099€ Keeneland Skylander 52,5 Plat
16/04/22 4 Galop 90 090€ Keeneland Urban Forest 54 Plat
15/04/22 3 Galop 540 540€ Keeneland Smooth Like Strait 55,5 Plat
15/04/22 4 Galop 99 099€ Keeneland Final Belle 53 Plat
09/04/22 5 Galop 675 675€ Santa Anita Win The Day 56 Plat
09/04/22 2 Galop 90 090€ Santa Anita Sterling Crest 54 Plat
09/04/22 1 Galop 360 360€ Santa Anita Desert Dawn 56 Plat
09/04/22 5 Galop 135 135€ Santa Anita Carmen Miranda 54 Plat
09/04/22 3 Galop 78 468€ Santa Anita Granola Girl 53 Plat
09/04/22 1 Galop 180 180€ Santa Anita Going Global 56 Plat
27/03/22 4 Galop 37 837€ Santa Anita Blossoming 54 Plat
27/03/22 0 Galop 30 630€ Santa Anita Darling Donna 53 Plat
27/03/22 3 Galop 60 360€ Santa Anita Press On 53 Plat
27/03/22 2 Galop 40 360€ Santa Anita Doncic 56 Plat
26/03/22 1 Galop 62 162€ Santa Anita Big Talker 56,5 Plat
26/03/22 1 Galop 62 162€ Santa Anita Coalinga Road 56,5 Plat
26/03/22 2 Galop 80 810€ Santa Anita Motorious 56 Plat
26/03/22 1 Galop 80 810€ Santa Anita Delmona 55 Plat
26/03/22 2 Galop 40 360€ Santa Anita California Street 56 Plat
26/03/22 2 Galop 112 612€ Santa Anita Going To Vegas 56 Plat
25/03/22 3 Galop 84 684€ Santa Anita Ecrivain 56 Plat
25/03/22 5 Galop 60 360€ Santa Anita Straus's Place 56,5 Plat
25/03/22 1 Galop 60 360€ Santa Anita Mamba Cool 56,5 Plat
25/03/22 3 Galop 27 927€ Santa Anita Naughty Evelyn 56,5 Plat
25/03/22 5 Galop 84 684€ Santa Anita Overdue 55 Plat
13/03/22 1 Galop 40 360€ Santa Anita King Apollo 56 Plat
13/03/22 4 Galop 78 468€ Santa Anita Topolina 53 Plat
05/03/22 7 Galop 180 180€ Santa Anita Tony Ann 54 Plat
05/03/22 6 Galop 80 810€ Santa Anita Cali Bay 56 Plat
05/03/22 6 Galop 450 450€ Santa Anita Flavius 54 Plat
05/03/22 1 Galop 80 810€ Santa Anita That's Amare 56 Plat
05/03/22 7 Galop 78 468€ Santa Anita Barnfield 55 Plat